RH
97 100 99 97 98 97 93 95 98 97 96 95 94 92 91 85 84 85 84 88 88 87 88 87 78 74 80 77 76 78 74 70 65 57 54 52 50 49 48 45 42 39 38 40 39 31 26 22 19 18 16 15 15 16 15 16 16 15 15 16 16 17 18 19 20 21 21 21 20 18 16 16 17 20 24 27 29 30 30 33 37 38 33 27 23 20 20 20 21 21 20 19 15 11 11 11 11
98 98 95 92 94 94 92 94 95 94 93 92 92 89 87 86 84 83 82 81 84 84 83 83 76 71 72 70 65 64 69 64 51 45 44 43 45 41 38 38 36 36 34 34 34 27 22 18 17 16 15 15 15 16 15 15 15 15 15 15 16 17 19 19 21 22 23 24 23 21 18 16 17 20 24 27 28 29 30 32 35 36 34 27 21 19 19 20 22 24 23 22 18 13 10 10 10
95 97 95 91 90 90 90 92 93 91 91 90 92 91 88 88 84 83 79 78 85 81 76 78 75 70 65 61 57 52 53 47 35 37 39 38 39 35 32 31 28 30 31 31 29 23 18 16 15 14 15 15 15 15 15 15 14 14 15 15 17 17 18 19 20 22 24 25 26 25 21 17 16 18 22 25 28 29 31 32 33 34 34 30 24 20 21 21 21 24 25 25 22 16 12 11 11
90 94 93 92 90 90 90 91 91 88 89 89 88 86 81 82 82 81 77 77 80 74 74 75 69 69 64 57 50 44 43 37 30 32 36 34 29 25 23 22 20 25 28 27 24 19 16 15 13 14 15 15 15 15 14 14 14 15 15 17 17 18 19 19 20 21 23 25 26 27 24 20 16 16 17 22 25 29 31 33 34 33 32 33 29 24 22 21 21 23 26 28 25 20 17 15 14
84 85 87 94 93 92 94 91 87 83 87 89 86 83 78 77 78 75 70 72 79 74 74 77 71 66 61 53 46 41 39 36 30 28 30 29 21 17 17 15 15 23 27 24 21 16 14 13 12 13 15 15 15 14 14 14 15 16 17 19 20 21 22 22 22 21 22 23 25 27 26 23 19 17 17 19 21 26 31 34 35 33 32 32 31 28 24 22 22 22 24 28 28 24 22 20 20
78 79 84 94 90 89 93 87 85 82 85 89 85 83 79 75 73 69 65 68 83 79 68 74 71 61 56 51 44 39 37 34 30 29 27 24 20 17 19 17 14 20 24 22 19 15 14 12 12 13 15 15 14 14 14 15 16 17 20 22 23 24 26 26 26 26 25 24 24 25 26 26 25 24 22 21 20 22 27 32 34 33 33 33 31 29 26 23 23 22 23 27 27 27 25 23 23
77 79 81 87 86 87 91 86 88 86 85 89 81 75 73 74 70 63 65 67 73 71 65 68 62 55 53 51 46 40 38 33 30 30 27 23 20 19 24 23 16 18 20 20 17 14 13 11 12 13 14 14 14 14 14 15 17 19 22 23 25 26 28 29 30 30 28 27 26 25 26 27 28 29 27 25 22 20 22 27 31 32 33 32 30 29 27 24 23 22 22 24 24 26 26 25 25
75 80 81 86 88 83 84 83 88 87 84 86 80 72 68 71 70 59 66 73 67 63 62 60 55 55 53 49 45 39 36 32 29 28 25 21 18 18 24 24 19 22 22 18 14 12 12 11 11 13 13 14 13 13 14 16 18 20 22 24 26 28 30 32 32 32 30 28 27 26 26 26 27 27 27 27 25 23 21 22 25 29 31 32 31 29 28 27 25 24 22 21 22 22 24 26 26
74 82 80 81 85 77 80 84 84 89 85 82 81 76 69 67 71 66 66 73 71 64 61 55 54 61 56 49 45 37 33 31 27 27 24 21 18 17 22 21 19 24 21 14 12 11 11 10 11 12 12 13 12 13 14 16 19 20 22 25 27 29 31 33 34 34 32 29 28 27 27 27 26 25 24 25 26 26 24 22 21 23 26 29 30 30 30 30 30 29 27 25 24 23 23 24 24
74 80 81 78 81 79 84 85 82 89 81 75 79 76 73 68 68 70 68 72 73 65 62 58 54 60 58 51 46 36 31 29 25 24 23 21 18 17 18 17 19 24 21 13 12 11 9 10 11 12 11 11 11 12 14 16 18 19 22 25 27 29 31 33 35 35 33 30 28 28 27 27 26 24 22 22 25 27 28 29 27 25 24 25 25 26 27 29 30 31 32 32 31 29 27 27 27
72 74 83 83 84 86 84 82 86 91 77 70 72 66 68 68 70 72 69 72 71 63 61 58 52 55 56 50 44 36 32 29 26 25 21 20 18 19 21 17 17 22 23 17 12 9 9 10 11 11 10 10 11 12 14 16 16 18 20 23 26 29 31 32 33 33 33 32 30 28 27 27 25 23 21 21 22 25 29 32 34 34 32 32 30 28 26 25 25 26 28 30 31 31 31 30 30
74 76 83 86 81 83 86 88 89 87 78 70 64 63 67 64 69 75 70 70 68 67 63 57 55 55 54 48 41 34 32 28 27 27 22 22 20 20 26 23 21 18 20 22 13 9 9 9 11 10 9 9 10 12 14 15 14 16 17 20 23 27 30 31 31 30 30 31 30 29 27 26 24 23 22 21 21 23 26 29 31 33 34 36 38 37 34 31 28 26 25 25 26 27 27 28 28
71 74 81 87 79 79 86 91 87 79 78 73 65 68 70 60 64 75 75 70 65 66 62 57 58 57 52 45 39 33 29 25 24 23 22 31 30 24 27 30 32 20 15 24 16 9 9 9 10 9 8 9 10 13 14 14 13 13 14 16 18 21 25 29 30 31 30 30 28 27 26 24 23 23 23 22 22 22 23 25 26 27 28 30 33 34 34 33 32 31 31 30 29 30 29 30 30
64 69 83 92 88 85 82 83 83 80 79 74 71 73 68 57 60 70 71 69 68 65 59 55 55 56 52 42 37 32 26 23 22 21 23 37 38 26 26 35 38 20 15 27 19 9 9 9 9 8 7 9 10 13 13 13 12 12 13 12 13 14 16 20 23 27 29 30 30 30 29 28 28 27 28 27 27 27 27 27 27 27 28 28 29 30 30 30 31 31 31 31 31 31 32 33 34
58 68 83 88 85 83 81 81 81 84 82 70 70 73 66 56 57 65 61 62 71 67 57 53 51 51 53 46 37 32 27 23 22 22 24 32 34 28 28 36 37 22 17 26 19 9 10 9 8 8 6 9 11 13 13 12 12 11 12 11 11 11 10 12 14 18 21 24 26 27 29 29 31 31 31 31 29 28 26 26 25 24 23 23 24 23 23 22 21 21 20 21 20 21 24 26 29
55 63 73 82 81 76 81 84 80 86 86 69 66 67 61 56 61 65 55 50 58 60 56 59 60 49 49 48 40 37 31 25 23 22 23 23 27 31 33 35 37 28 16 19 20 11 8 8 7 7 6 9 11 12 12 11 12 11 11 11 10 10 9 9 10 12 14 15 17 18 21 22 23 24 23 23 22 20 19 18 18 18 18 19 20 19 17 15 13 14 15 16 14 12 12 13 15
53 56 63 77 83 79 81 85 84 88 88 75 65 63 58 55 60 58 50 48 48 50 51 55 60 53 51 47 40 40 33 25 23 23 23 20 23 28 29 29 29 26 15 12 18 14 9 8 7 6 5 8 11 12 12 11 11 10 10 9 9 9 9 10 9 10 11 14 17 16 16 18 20 22 21 20 18 15 14 14 14 14 15 15 16 15 14 14 13 14 19 23 23 19 16 12 10
49 55 61 70 80 84 83 86 84 82 88 83 71 67 57 47 50 49 50 54 48 50 47 44 52 55 53 45 38 36 30 25 22 24 23 20 23 23 25 27 20 22 18 10 15 18 13 9 6 6 5 7 10 11 12 12 11 11 10 8 8 9 8 9 9 11 15 20 24 21 17 19 21 22 23 21 17 14 11 10 10 10 11 12 12 12 12 13 14 15 18 23 25 27 26 21 18
43 51 59 66 79 87 87 84 77 79 88 84 76 71 62 51 45 47 56 52 50 56 47 38 42 43 41 37 37 34 29 26 20 22 24 23 21 19 25 27 20 24 21 10 14 19 16 13 8 5 6 7 10 11 12 12 12 11 11 9 9 9 9 9 9 11 16 24 28 26 23 22 22 21 21 20 17 13 10 9 8 9 10 11 11 10 11 14 17 18 17 19 22 23 23 24 23
42 46 54 62 78 90 93 89 83 84 84 81 77 69 69 61 41 48 59 46 49 62 51 44 38 28 27 29 37 39 33 28 21 18 21 24 20 18 23 20 20 30 22 11 17 19 16 20 13 5 6 6 9 11 12 12 12 12 11 11 11 10 10 10 11 11 13 22 26 26 25 21 21 19 18 18 17 13 12 13 15 17 17 17 19 17 16 21 22 18 14 16 19 18 17 20 18
40 44 46 52 73 87 89 88 88 84 75 79 82 68 67 63 45 52 60 50 61 70 59 56 44 28 22 20 32 41 37 31 25 18 17 22 21 19 20 14 16 27 23 17 21 17 14 21 17 8 7 7 8 10 12 13 12 13 12 12 12 12 11 11 13 13 14 19 20 21 21 19 21 22 21 22 21 19 18 17 18 22 24 20 22 22 20 20 19 18 15 12 13 14 13 13 13
36 45 47 48 64 80 83 81 80 76 72 78 78 66 65 64 56 56 57 58 70 70 62 60 46 34 27 19 26 33 30 30 28 20 16 18 21 18 15 12 12 19 23 24 25 18 12 17 16 12 12 9 8 9 10 12 13 12 12 13 12 12 11 11 14 15 16 20 19 19 18 17 21 24 27 25 22 23 23 20 18 22 25 18 17 21 18 14 14 16 15 10 10 16 18 13 15
34 45 50 55 61 71 80 78 68 65 73 78 73 70 70 67 62 58 51 48 57 59 59 60 52 45 39 26 22 24 20 24 27 20 13 13 18 17 12 12 11 13 17 19 24 20 13 15 15 14 14 10 9 12 11 10 12 12 12 12 12 11 10 11 13 14 15 17 17 18 16 14 18 22 26 26 22 22 23 21 22 24 25 18 14 16 15 14 11 11 10 9 8 15 23 15 14
34 42 45 54 59 65 73 73 67 63 68 74 74 73 70 63 60 60 53 43 49 54 48 48 50 50 48 31 17 16 15 22 28 19 11 8 12 15 12 12 11 11 11 11 19 21 15 12 15 16 12 10 11 14 12 9 10 11 11 12 12 12 11 10 11 11 11 12 11 14 16 15 18 21 20 21 19 20 21 20 20 23 22 17 14 12 14 15 12 11 11 11 7 8 19 13 9
35 39 42 49 54 62 66 64 66 65 62 66 69 67 61 58 55 56 54 47 48 48 43 41 40 43 44 35 23 15 12 23 33 29 20 9 9 14 13 13 10 9 10 7 11 18 15 12 17 18 10 10 14 14 10 9 10 10 11 12 12 13 12 11 11 11 10 10 9 10 15 17 20 20 17 19 18 20 24 19 17 19 15 15 18 15 15 16 13 13 12 11 8 5 12 10 7
36 37 41 47 51 60 65 62 65 68 63 59 60 59 56 53 48 48 48 46 48 50 53 47 37 37 35 32 31 25 16 20 30 32 23 11 10 15 17 16 10 8 10 7 8 12 12 11 15 16 12 11 15 15 10 8 10 9 10 11 12 13 13 12 12 12 11 11 10 8 10 15 20 19 15 18 17 18 22 18 20 21 11 14 22 14 11 13 11 10 8 8 7 5 8 7 6
36 37 38 45 50 56 61 62 66 69 64 59 60 61 57 49 48 57 55 49 52 56 60 52 40 37 32 27 29 31 24 20 28 27 15 10 10 13 18 17 10 9 9 7 7 6 7 7 9 14 12 9 11 13 11 11 12 9 10 10 11 12 12 13 13 13 13 12 11 10 7 9 15 15 11 14 12 14 19 15 19 21 12 15 20 13 8 9 9 9 7 6 6 6 7 6 7
33 35 36 42 51 54 55 59 68 68 59 57 60 59 57 52 54 66 62 53 55 62 64 56 44 35 29 26 27 33 27 21 34 31 15 11 11 11 14 14 12 11 9 7 6 5 5 5 7 10 10 7 7 9 8 11 12 9 9 10 10 11 11 12 12 13 14 13 12 11 8 6 11 12 8 10 11 13 15 10 10 13 10 12 13 11 9 6 8 10 8 9 8 7 8 6 7
29 31 32 39 47 52 56 60 67 67 61 59 57 56 57 55 56 62 57 49 51 60 65 59 46 34 27 25 26 33 25 19 29 29 18 13 12 15 13 12 12 11 9 6 5 5 4 5 6 8 8 6 6 6 6 7 8 7 8 9 9 10 11 11 11 12 13 14 14 12 11 8 9 10 8 8 9 10 11 9 10 11 9 11 12 12 12 9 11 14 14 16 16 15 16 14 14
25 28 29 35 38 44 55 59 62 64 63 62 57 55 60 63 62 61 56 46 43 55 66 61 49 36 33 31 29 30 24 18 22 27 25 14 11 19 15 12 12 10 10 6 4 5 4 5 6 7 8 6 5 5 6 6 7 7 7 7 7 8 9 10 10 10 11 12 13 13 12 11 9 8 8 7 7 9 10 11 15 14 10 13 15 14 14 15 18 23 25 27 29 31 32 32 33
21 26 27 30 32 40 53 56 55 61 64 63 60 57 64 80 80 67 59 48 43 57 68 66 60 50 43 41 37 32 25 16 14 24 28 16 10 15 14 13 12 10 10 7 4 5 4 4 5 7 8 6 6 5 5 6 7 7 7 6 6 6 7 8 8 8 9 9 9 10 10 10 8 6 7 7 8 11 12 13 15 15 12 14 18 18 19 22 25 30 33 37 40 40 41 41 42
16 22 24 27 31 38 54 61 53 57 66 63 60 61 72 92 97 85 70 56 53 60 67 70 71 63 51 49 49 38 29 19 14 21 26 22 18 15 15 16 14 12 10 8 4 4 4 5 5 7 8 7 6 5 5 6 6 6 6 5 5 5 5 6 6 6 6 7 7 7 7 6 6 6 8 10 10 11 12 14 17 16 14 17 20 20 22 26 31 36 38 39 38 36 36 35 35
10 14 19 25 31 34 51 69 62 57 65 63 58 65 84 97 98 94 81 66 67 68 71 72 64 60 56 52 51 43 34 24 20 23 22 25 26 19 18 20 20 16 11 8 5 3 4 4 5 6 7 7 6 5 5 5 6 5 5 5 5 4 4 5 5 5 5 6 5 5 5 5 6 9 11 12 12 11 11 13 17 16 15 17 19 21 24 27 32 36 35 32 31 31 31 30 29
9 9 14 20 27 32 46 69 76 64 58 62 60 60 80 94 90 91 84 73 74 71 76 74 56 55 57 47 46 42 32 24 20 20 18 20 23 18 14 15 19 17 13 10 6 4 4 4 5 5 6 7 5 6 5 5 5 5 5 4 4 4 5 5 6 6 6 6 5 5 5 6 9 11 13 12 12 12 11 11 14 15 15 16 19 22 25 28 30 31 30 29 30 31 30 28 26
11 9 11 17 23 30 41 63 78 72 60 63 69 69 82 95 90 84 80 77 77 72 76 73 58 59 58 43 43 40 28 25 22 19 22 21 18 18 15 12 16 16 13 11 6 4 4 3 4 5 5 6 5 5 5 5 5 4 4 4 4 4 4 6 7 7 7 6 6 5 7 10 12 12 11 11 11 11 12 12 12 14 15 17 21 24 25 28 29 27 27 28 28 29 27 24 21
14 12 11 15 22 31 45 62 74 80 79 79 85 90 90 95 91 76 74 83 82 75 75 72 63 65 62 45 42 42 29 25 25 23 26 23 17 18 17 14 14 14 13 11 8 5 4 4 4 4 5 5 5 5 4 4 4 4 4 4 4 4 4 6 7 7 7 7 6 6 9 11 11 10 9 9 10 10 12 14 14 13 14 16 20 23 25 28 29 27 26 25 24 23 22 20 18
13 15 14 15 19 32 55 70 71 78 87 88 95 100 93 94 91 73 76 90 86 77 72 69 66 65 66 53 43 44 36 26 27 26 25 24 19 15 13 14 14 14 14 12 9 5 5 4 4 4 4 5 5 5 5 4 4 4 4 4 3 3 4 5 7 8 7 7 7 7 9 10 9 9 9 9 8 10 12 14 15 15 14 17 21 22 23 26 28 28 25 22 21 20 19 18 16
10 15 23 36 34 29 51 72 71 75 82 84 91 94 90 92 89 78 79 82 82 84 75 65 65 67 71 64 50 46 42 35 32 27 24 26 24 16 10 12 15 14 14 13 9 6 5 5 4 4 4 4 5 5 5 4 4 3 3 3 3 3 4 4 6 8 8 8 8 8 9 8 9 10 11 10 9 10 12 13 16 17 15 19 23 23 22 27 31 29 24 21 20 20 18 16 14
7 10 21 48 57 41 48 66 69 74 79 79 82 84 83 84 87 89 85 75 70 78 76 65 65 70 74 68 57 50 45 43 42 35 31 31 27 18 10 11 15 14 15 14 9 6 6 5 5 4 4 4 5 4 4 4 3 3 3 3 3 3 3 4 6 7 8 8 8 9 8 8 11 13 13 14 13 13 13 14 18 19 18 20 20 20 22 26 30 28 23 19 19 19 17 14 13
4 9 11 27 52 58 57 62 66 73 77 74 74 78 78 77 83 88 87 84 76 69 70 71 70 72 72 64 54 48 44 49 52 40 32 32 28 23 15 12 14 13 15 15 9 6 5 6 5 4 4 4 4 4 3 3 3 3 3 3 3 3 3 3 5 6 7 8 9 8 8 10 14 16 16 16 17 16 16 16 16 17 20 20 17 17 19 19 21 24 22 18 18 18 14 14 14
2 7 9 10 28 50 58 59 61 69 73 72 72 72 71 71 77 81 82 86 86 79 72 67 68 69 70 68 57 48 48 52 54 44 34 30 27 28 20 12 13 13 14 15 11 7 5 6 6 4 4 4 3 4 3 3 3 3 3 3 3 3 3 4 4 6 7 8 8 7 9 13 16 18 18 18 18 18 18 18 16 16 19 20 18 16 17 17 17 20 20 17 17 16 14 16 17
3 2 7 7 11 31 52 56 57 62 64 69 73 73 75 78 76 76 80 80 79 83 77 66 64 60 63 74 64 51 51 51 50 47 37 28 25 29 23 12 11 14 13 14 11 7 6 6 5 4 3 3 3 3 3 3 3 3 3 2 3 3 3 4 4 6 7 7 7 7 11 16 17 19 20 19 20 19 19 19 18 17 18 20 19 16 15 17 17 17 17 15 15 14 15 20 22
5 2 3 6 6 18 40 51 55 56 55 61 68 71 74 77 78 77 77 75 73 78 81 77 69 54 54 73 69 55 52 50 48 45 39 35 30 27 22 13 10 13 14 13 9 6 6 6 5 3 3 3 3 3 2 3 3 3 3 2 3 3 4 4 5 6 7 8 8 9 13 16 17 19 21 20 19 18 18 18 19 17 17 18 18 16 15 15 17 16 14 14 13 14 17 22 23
3 3 3 4 4 9 22 39 52 55 54 56 58 65 67 66 74 78 73 76 81 80 79 79 71 52 46 66 77 67 55 49 47 44 40 38 36 34 27 16 10 11 13 12 8 6 6 6 5 3 3 3 2 3 3 2 3 2 2 3 3 3 4 4 5 6 7 8 9 11 15 16 17 18 19 19 17 16 16 16 17 17 17 18 17 17 15 14 16 14 13 14 12 13 18 22 21
3 3 4 3 4 5 8 23 43 54 58 56 51 56 61 60 62 67 70 74 77 74 71 72 75 61 41 48 71 73 59 49 45 40 35 33 38 43 33 16 10 9 11 12 9 5 5 6 5 3 2 3 2 2 3 2 3 3 2 3 3 3 4 5 5 7 7 9 10 13 15 16 17 17 17 17 16 16 17 16 17 16 16 18 17 17 16 14 15 13 12 13 10 13 19 22 20
3 3 4 4 3 4 5 8 24 44 50 50 53 54 59 63 56 56 62 57 56 66 66 67 81 75 45 36 56 68 60 51 47 37 32 33 35 39 30 15 11 10 10 12 9 5 5 4 4 3 2 2 3 2 2 2 2 2 2 3 3 4 5 5 6 7 8 9 10 12 14 15 16 16 15 16 15 16 17 17 18 18 16 16 16 17 16 15 14 13 12 11 9 13 19 21 19
4 4 4 5 4 3 5 3 9 24 24 25 39 50 61 58 42 51 68 55 50 71 73 68 79 74 47 36 49 63 61 54 52 40 28 29 30 30 23 12 11 12 10 10 9 6 4 4 3 3 3 2 3 2 2 3 2 2 3 2 4 4 5 6 5 6 7 8 10 11 12 14 14 15 14 14 14 15 17 18 19 21 21 19 17 16 17 16 14 13 12 10 9 12 19 22 19
3 4 3 4 5 3 4 4 4 8 7 6 13 28 46 37 15 30 61 54 38 50 67 73 75 62 46 46 47 51 57 57 58 49 29 22 23 21 16 12 13 13 9 8 9 7 4 4 3 2 3 2 2 3 2 3 2 2 3 3 4 4 5 6 5 6 7 7 9 9 11 12 12 13 13 12 12 13 15 17 19 22 24 24 21 17 16 16 14 14 12 11 9 11 18 22 19
3 4 4 3 6 6 3 3 4 3 3 4 2 9 22 16 4 11 34 42 23 20 46 66 69 55 46 54 47 38 48 57 60 58 40 22 19 19 18 17 16 11 8 8 8 7 5 4 4 3 3 3 2 3 3 3 3 2 3 3 4 4 4 5 6 6 7 7 8 8 9 10 10 10 11 10 11 11 12 14 16 20 25 28 26 21 17 15 15 15 13 11 9 10 15 20 19
4 3 3 4 4 4 3 2 4 2 2 3 3 8 10 4 4 4 11 25 17 12 34 54 62 48 28 35 42 38 44 49 54 63 52 28 16 16 15 11 9 6 7 10 8 7 5 4 4 3 3 4 3 4 3 3 3 2 3 3 3 4 4 5 6 5 6 7 7 8 8 8 9 9 9 9 9 10 10 11 14 17 24 28 29 26 21 17 15 15 14 13 11 9 12 18 19
5 4 3 4 3 2 3 3 3 3 3 3 3 6 5 2 4 2 3 9 7 14 36 57 70 52 18 17 33 40 41 38 46 60 56 36 17 12 11 6 6 7 6 8 8 7 6 4 5 4 4 4 3 4 4 3 3 3 3 3 3 4 4 4 5 5 6 6 6 7 7 7 8 7 8 8 8 9 9 10 13 16 22 28 30 29 26 21 17 15 15 14 12 10 11 15 18
5 5 4 3 4 3 3 3 3 3 3 3 5 4 2 2 3 2 3 4 3 6 19 45 70 57 21 13 23 31 35 34 42 54 55 44 20 8 11 9 7 8 6 7 7 6 6 5 5 5 4 5 4 4 4 3 3 3 2 3 3 3 4 4 4 5 5 5 5 6 6 6 7 7 7 8 9 9 8 11 14 17 21 26 29 30 29 26 21 17 15 15 14 11 11 13 16
7 6 5 3 5 3 3 10 13 12 9 6 4 6 6 2 3 5 3 3 4 3 2 17 47 48 21 10 13 18 29 35 40 50 57 52 28 10 15 14 9 9 6 6 7 6 7 6 5 6 5 5 4 3 4 3 3 3 2 3 3 3 4 4 4 4 5 5 5 5 6 7 7 7 7 8 9 9 10 12 15 18 22 26 29 31 32 30 25 20 16 16 16 13 11 12 14
10 7 6 4 5 5 4 15 24 23 21 19 17 20 19 9 4 6 5 3 2 4 4 1 24 44 24 7 9 19 36 42 41 52 60 53 35 19 20 20 12 10 8 6 7 6 6 6 5 6 5 4 4 3 3 3 2 3 3 3 3 3 4 4 4 4 5 5 5 5 6 7 8 10 11 12 12 12 13 15 17 20 23 26 29 32 34 34 31 25 19 16 17 16 13 12 13
12 10 10 7 5 6 3 7 16 15 17 24 29 33 35 28 16 7 5 6 1 4 6 -3 19 48 29 9 14 24 41 47 44 56 62 53 39 21 22 29 19 12 9 6 6 6 5 6 5 4 5 3 3 3 3 3 3 3 3 3 4 4 4 4 4 4 5 5 5 6 6 7 9 11 13 14 15 15 17 17 18 21 24 26 29 32 35 37 36 32 26 19 18 18 15 13 13
15 14 15 13 8 8 6 3 5 10 17 28 33 31 32 35 26 9 3 6 2 4 6 -1 16 37 23 15 19 19 35 44 39 51 60 58 48 26 26 40 32 20 14 7 5 6 4 5 4 4 4 3 3 3 2 3 3 3 4 4 4 4 5 5 5 5 5 5 5 6 6 7 7 8 10 12 13 14 16 18 20 22 24 26 28 30 33 36 38 38 35 27 20 19 19 16 14
17 18 18 17 13 9 8 7 4 7 17 31 42 36 28 32 30 22 19 14 3 2 5 1 9 18 14 18 17 11 27 34 30 46 61 63 59 39 30 45 46 33 20 9 5 5 4 4 4 3 3 3 3 3 3 3 4 4 4 5 5 5 5 5 5 5 5 6 6 6 6 6 7 7 8 9 10 11 13 16 19 21 23 25 26 27 30 34 37 40 42 37 27 21 21 20 17
20 19 18 17 15 11 9 9 7 5 7 19 40 43 35 36 37 38 40 27 6 2 5 2 4 10 10 12 9 5 16 22 25 46 62 66 68 55 39 46 54 41 25 15 9 5 4 3 3 4 3 3 3 3 4 4 4 5 4 5 5 5 5 5 5 5 6 6 7 7 8 8 8 8 9 10 10 11 12 13 15 18 21 23 24 25 26 29 34 38 43 44 36 26 21 21 21
Wind_Speed
12 12 11 10 9 9 9 10 11 10 10 9 9 12 12 9 8 8 9 9 8 9 9 9 9 7 7 5 4 6 5 4 4 5 7 6 5 5 6 6 7 7 6 7 7 7 8 9 9 8 7 7 7 7 8 8 8 8 8 8 8 8 8 8 8 8 7 8 8 9 9 9 9 9 10 10 11 11 11 11 12 13 14 14 14 13 13 13 12 11 10 9 8 8 8 7 7
14 14 12 12 11 11 9 10 13 14 14 12 11 12 9 8 8 8 10 9 7 9 8 7 9 8 6 5 5 5 5 5 5 5 6 6 5 4 5 6 6 6 6 6 7 7 8 9 9 8 7 7 8 8 8 9 8 8 8 8 8 8 8 8 8 8 8 8 9 9 9 9 9 9 10 10 10 11 11 11 12 12 13 13 13 13 13 12 11 10 9 8 8 8 8 8 7
14 14 13 12 11 11 10 10 13 16 15 14 12 11 9 9 8 8 10 9 8 9 8 7 8 8 7 6 6 5 6 5 5 6 5 4 4 4 4 5 6 6 6 7 7 7 8 9 9 9 8 8 8 9 9 9 9 8 8 9 9 8 8 8 8 8 8 9 9 10 10 10 10 10 10 10 10 10 11 11 11 12 12 13 13 13 12 11 11 10 9 8 8 8 9 9 8
12 11 12 12 11 11 11 12 13 13 14 15 14 11 11 12 9 8 9 8 8 7 7 7 6 6 7 6 6 6 6 6 5 6 5 4 3 4 4 4 6 6 7 7 7 7 8 8 9 9 9 9 9 9 10 10 9 9 9 9 9 9 8 8 8 8 8 9 10 10 11 10 10 10 10 9 9 10 10 10 11 11 12 12 12 12 12 11 10 9 8 8 8 8 8 9 8
10 9 9 11 11 11 11 13 13 11 12 15 13 10 12 11 8 8 8 8 8 7 5 4 5 6 6 6 5 7 6 5 5 5 6 4 3 4 4 4 6 6 7 8 8 8 8 8 9 10 10 9 10 10 10 10 9 9 10 9 9 9 8 8 8 8 9 9 10 11 11 11 10 10 10 9 9 9 9 10 10 11 11 11 12 11 11 10 9 8 8 7 7 7 8 8 8
10 8 7 10 11 11 10 12 11 12 12 12 12 9 10 10 7 6 5 6 7 7 5 3 4 5 5 5 5 6 6 5 5 5 5 5 4 4 4 5 6 7 8 8 8 8 8 8 9 10 10 10 10 10 10 10 10 10 10 10 9 9 8 8 8 9 9 10 10 11 11 11 10 10 10 10 9 9 9 9 9 10 10 10 11 11 10 10 9 8 7 7 6 6 6 6 6
9 8 8 9 9 9 9 11 10 12 12 10 10 8 8 8 6 6 4 4 5 4 4 3 3 3 3 4 4 4 5 5 5 5 5 5 4 4 4 5 6 7 8 8 8 8 8 9 9 11 11 11 11 10 10 10 10 11 11 10 9 9 8 8 8 9 10 11 11 11 11 10 10 10 10 10 10 9 9 9 9 9 9 9 9 9 9 8 8 7 6 6 5 5 5 5 5
8 9 8 8 7 8 9 10 9 10 11 9 7 5 4 4 3 3 3 3 3 2 2 3 2 2 3 3 2 2 4 4 5 5 5 5 5 5 5 5 6 7 8 8 8 8 9 9 10 11 11 11 11 11 11 11 11 12 11 11 10 10 9 9 9 10 11 12 11 11 11 11 10 10 10 10 10 10 10 9 9 9 8 8 8 8 8 7 6 6 5 4 4 4 4 3 3
8 8 6 6 8 8 9 9 8 9 10 7 4 3 3 2 2 1 0 0 1 1 2 2 2 2 3 3 2 2 3 3 4 5 5 5 5 5 5 5 6 7 7 7 8 8 9 9 10 11 12 12 12 11 11 12 12 12 12 11 11 11 11 11 11 11 12 12 12 11 11 11 10 10 10 10 10 10 10 10 9 9 9 8 8 7 7 6 6 5 4 4 3 3 3 3 3
7 6 5 6 6 6 8 9 7 7 7 6 3 1 1 1 0 1 2 2 1 1 2 1 1 2 3 3 3 2 2 3 4 5 5 5 5 5 5 5 6 6 6 7 8 8 9 9 10 11 12 12 12 12 12 12 13 13 12 12 12 12 12 12 12 13 13 12 11 11 11 11 11 11 11 11 11 11 11 11 10 10 9 9 8 7 6 5 5 4 3 3 3 3 3 3 3
4 4 4 6 7 6 6 7 6 4 4 4 2 1 1 2 2 2 3 3 3 3 2 2 2 3 4 3 3 2 2 3 4 4 4 5 5 5 5 5 6 6 6 7 8 8 9 10 10 12 13 13 12 13 13 13 13 13 13 14 14 14 14 14 14 14 14 13 12 11 11 11 11 11 12 12 12 11 11 11 11 11 11 10 9 8 7 6 4 4 3 3 2 2 2 3 3
5 4 3 6 8 5 5 6 3 2 2 2 1 1 2 3 3 4 5 4 4 3 3 4 3 3 4 4 3 2 2 3 4 4 4 5 5 5 5 5 6 6 6 7 7 8 9 10 11 12 13 13 13 13 14 13 13 14 14 15 15 15 15 15 15 15 15 14 13 12 11 11 11 11 11 11 11 11 11 11 11 11 11 11 10 9 8 7 6 5 4 3 3 2 2 3 3
5 5 4 6 8 5 6 7 3 0 0 1 1 2 3 3 3 5 6 4 4 3 3 4 2 3 4 4 3 3 3 3 3 3 4 6 6 5 6 6 6 6 7 8 7 8 9 10 11 12 13 13 13 14 14 13 14 15 15 15 16 16 16 16 16 16 17 16 15 13 13 12 12 11 11 11 11 12 11 11 11 11 11 11 10 10 9 8 8 7 6 5 4 4 3 3 3
5 5 3 5 8 7 7 7 4 2 2 2 2 3 3 4 4 6 6 4 3 3 3 3 2 2 2 3 4 4 3 3 3 3 4 6 7 6 6 6 6 6 7 8 8 8 9 10 12 13 13 13 14 14 14 13 14 15 16 16 16 17 17 17 18 18 18 17 17 16 15 14 13 13 12 13 13 13 13 13 13 12 12 12 12 11 11 10 9 8 7 7 6 5 5 4 4
6 5 1 3 5 6 5 4 5 2 2 3 3 2 3 5 5 5 6 6 4 3 4 4 2 2 2 4 4 4 4 4 4 4 4 6 7 7 7 7 7 6 7 9 8 9 9 10 12 13 13 14 14 14 14 14 14 15 16 16 17 18 18 19 19 19 19 19 18 18 17 16 16 15 15 15 15 15 15 15 15 15 15 15 15 14 14 13 12 11 10 9 9 8 8 7 7
7 6 2 3 4 4 2 3 5 3 2 3 4 3 4 4 4 6 7 8 8 5 5 5 2 1 2 3 4 4 4 5 5 5 5 6 6 7 8 8 8 7 8 9 9 9 9 10 12 13 14 14 14 14 14 14 15 15 16 16 17 17 18 19 19 20 20 20 20 19 19 18 18 17 17 17 17 17 17 17 17 17 17 16 16 16 15 15 14 13 12 12 11 11 11 10 10
7 7 3 2 4 4 4 4 5 5 2 2 4 4 4 3 4 7 8 9 10 8 6 6 4 3 3 3 5 4 4 5 6 6 6 6 7 8 9 9 9 8 8 9 10 10 9 10 12 13 14 14 14 14 14 14 15 15 15 16 16 16 17 18 18 19 19 20 20 20 19 18 18 18 18 18 17 17 18 18 17 17 16 16 16 16 15 14 14 13 13 13 13 12 12 12 12
9 9 6 5 5 4 5 7 7 7 5 3 2 3 4 4 4 6 7 7 8 7 7 7 5 3 3 4 5 4 5 6 6 7 7 7 7 9 10 10 10 9 9 9 10 11 10 11 12 13 14 14 14 14 14 14 14 15 15 15 15 15 16 17 17 18 18 18 19 18 18 18 18 18 17 17 17 17 17 17 17 16 16 16 16 16 15 14 14 14 14 13 13 13 13 12 12
11 11 9 8 7 4 4 7 8 7 6 5 2 3 4 3 4 5 6 6 6 6 7 7 5 5 5 5 5 5 5 7 7 7 8 7 7 9 11 11 11 10 10 10 11 12 11 11 12 13 13 13 14 14 14 14 14 14 14 14 14 14 15 16 17 17 17 17 17 17 17 16 17 17 17 17 16 17 17 17 17 16 16 16 16 15 15 14 14 14 14 14 13 13 13 13 12
13 13 11 9 7 6 6 6 6 6 4 5 3 5 4 3 3 5 5 5 5 6 7 6 5 7 7 6 5 6 7 7 7 8 8 7 7 8 10 11 12 12 12 11 12 12 12 12 13 13 13 13 13 13 14 14 14 14 13 13 13 13 14 15 16 17 16 16 16 16 15 15 16 17 17 16 16 16 17 17 16 16 16 16 15 15 14 14 14 14 14 14 13 13 13 12 12
14 14 14 11 9 9 8 6 7 9 4 2 3 5 5 3 4 6 5 5 5 5 7 6 5 7 7 7 6 7 9 9 9 9 8 8 7 9 10 11 12 12 12 12 12 12 12 13 13 13 13 13 13 13 13 13 13 13 13 13 13 12 13 14 15 16 16 15 14 14 14 14 15 16 16 15 15 15 16 16 15 15 15 14 14 14 13 13 13 13 12 12 12 12 11 11 11
16 15 16 13 11 10 7 7 9 8 4 4 4 4 5 3 4 6 4 6 6 6 8 7 6 6 7 8 8 8 10 11 10 9 9 9 9 10 11 11 12 12 12 12 12 12 12 13 13 13 13 13 13 12 12 12 12 12 13 12 12 12 12 13 14 15 15 15 14 13 12 13 14 14 15 15 14 14 14 14 14 13 13 13 13 12 11 12 12 11 11 11 11 11 11 12 11
17 16 17 14 13 13 10 8 8 6 6 7 3 2 5 3 4 5 4 7 7 8 10 7 6 7 8 9 9 9 10 10 10 9 9 10 11 11 11 13 13 14 13 13 13 12 12 12 13 13 13 13 13 12 12 12 12 12 12 12 12 12 12 12 12 13 14 14 14 14 12 13 13 13 14 14 13 13 13 12 12 12 12 12 11 11 11 11 11 10 10 10 10 10 10 11 10
18 17 18 17 16 16 14 10 8 8 8 7 3 3 4 3 4 5 5 7 7 9 10 8 8 8 8 9 10 11 9 9 9 8 9 10 11 12 12 13 14 14 14 13 13 13 13 13 13 13 13 13 13 12 12 12 12 11 11 11 11 11 11 11 11 12 12 13 13 13 13 13 13 12 13 13 12 11 11 11 10 10 11 10 10 11 10 9 9 10 10 10 10 10 10 10 10
19 18 18 18 17 14 14 12 9 9 8 6 5 5 4 3 4 5 7 7 8 10 10 9 8 8 7 7 9 10 9 9 10 10 10 10 12 11 12 13 14 15 15 14 14 14 13 13 14 14 13 13 13 13 12 12 12 12 11 11 10 10 10 10 10 10 11 11 11 11 11 11 11 11 11 11 11 10 10 10 9 9 10 9 9 9 8 8 9 9 10 9 10 10 10 9 10
20 20 19 19 18 14 12 11 10 10 9 7 6 5 5 4 4 5 8 9 9 10 9 8 7 8 7 6 7 9 10 10 12 12 12 12 13 12 12 13 14 16 16 15 15 14 14 14 14 14 13 13 14 13 12 12 12 11 11 10 10 10 10 9 9 9 9 10 9 9 9 9 9 9 9 10 9 9 9 9 9 9 9 8 8 8 7 8 10 10 10 10 10 11 10 10 10
21 21 20 20 19 17 14 12 11 11 10 8 7 6 6 5 4 6 8 8 9 10 8 7 7 7 7 6 8 8 10 11 13 14 13 12 14 14 13 13 14 15 16 15 15 14 14 14 13 13 13 13 13 13 11 11 11 11 10 10 10 10 9 9 9 9 9 8 8 7 7 7 7 7 7 9 9 8 8 8 8 7 8 8 7 8 8 10 11 11 12 12 12 11 11 11 11
23 21 20 19 19 18 15 12 12 12 11 8 7 7 7 6 5 7 9 8 9 10 8 7 7 6 6 7 8 8 10 12 13 13 12 12 13 14 14 14 14 15 16 16 15 15 14 14 14 13 13 13 13 12 11 11 11 10 10 9 9 9 9 9 9 9 8 8 7 7 6 6 6 6 6 8 8 7 7 7 7 7 8 8 8 9 10 12 12 12 13 13 12 12 11 11 11
24 22 20 19 19 19 15 13 13 11 9 8 8 8 7 6 6 9 11 10 9 10 9 8 7 7 8 8 9 9 9 11 12 12 12 11 12 13 14 14 15 16 17 17 16 16 15 15 14 14 13 13 13 12 12 11 11 10 9 9 8 9 9 9 9 8 8 8 7 7 6 6 5 5 5 6 7 7 7 7 7 8 8 9 10 11 12 13 13 13 13 13 12 12 12 12 11
25 23 21 20 19 18 16 14 14 12 11 10 10 10 8 8 9 10 13 12 10 11 10 9 9 9 9 9 9 10 10 10 12 13 13 12 12 13 13 15 15 16 17 17 17 16 16 15 15 14 14 13 13 12 12 11 10 9 8 8 7 8 8 8 8 8 8 8 7 7 6 5 5 5 4 5 6 6 7 7 8 8 9 10 11 12 12 13 13 13 13 12 12 12 12 12 11
25 24 22 19 18 17 16 16 16 14 13 12 12 11 9 8 9 10 13 13 11 11 11 10 10 10 10 10 10 10 11 11 12 14 14 14 14 14 14 14 15 16 16 16 16 16 16 16 16 15 15 14 14 12 12 11 10 9 8 7 7 7 7 8 8 8 8 7 7 6 6 5 4 4 4 4 5 6 7 7 7 8 8 9 11 11 11 12 12 12 12 12 11 11 11 10 10
26 25 21 18 17 17 18 18 18 16 15 14 13 12 9 7 8 11 15 13 12 13 13 13 11 10 11 11 10 10 10 11 12 14 15 15 15 15 14 14 15 15 16 16 16 16 16 16 16 16 15 15 15 13 12 11 10 9 8 7 7 7 7 7 8 8 7 6 6 5 5 4 4 4 4 5 4 5 5 5 6 6 7 8 9 9 10 11 11 11 11 11 10 10 10 10 10
25 24 20 18 16 17 18 16 16 18 17 16 15 13 9 7 8 13 15 13 13 15 14 13 11 11 12 10 10 9 9 10 11 14 16 16 16 16 16 16 16 16 17 17 16 16 17 17 16 16 16 15 15 14 13 12 11 10 9 8 7 7 7 7 7 7 7 6 6 5 5 4 4 4 4 4 4 4 4 4 4 5 6 7 7 8 10 10 10 10 10 10 10 10 10 10 10
23 21 19 19 17 18 18 13 14 22 19 17 17 15 11 9 10 14 13 12 15 17 14 13 12 14 13 9 10 9 9 10 10 13 16 17 17 17 17 17 17 18 18 18 17 17 17 17 16 16 15 15 14 14 13 12 11 10 9 8 7 7 7 7 7 7 7 6 6 5 5 4 4 3 3 3 3 3 3 3 3 4 5 5 6 8 9 9 9 9 9 10 10 10 10 10 10
22 21 19 19 18 19 19 16 15 23 21 19 19 18 14 11 13 16 13 13 16 17 16 15 14 14 13 10 9 10 9 9 9 12 15 17 17 17 18 18 18 19 19 19 18 17 16 16 16 15 15 15 14 14 13 12 11 11 10 9 8 8 8 7 7 7 7 6 6 5 5 4 3 2 2 2 2 2 3 3 4 4 4 5 6 7 8 9 9 9 10 10 10 10 10 10 9
23 23 21 21 19 19 18 17 17 19 20 20 19 18 15 13 18 19 15 15 17 18 17 16 14 14 15 12 9 10 10 9 9 11 14 17 18 18 18 18 18 19 19 19 19 17 16 16 16 16 15 15 15 14 13 13 12 12 11 10 10 9 9 8 8 8 7 7 6 6 5 4 3 1 1 1 2 2 3 3 4 4 4 5 5 6 8 9 8 9 10 10 10 10 9 9 9
25 25 24 22 21 20 16 15 17 20 19 18 18 18 14 13 20 20 15 16 17 18 18 15 15 15 15 13 11 12 12 10 10 10 13 16 19 19 19 19 19 19 19 19 19 18 16 16 17 17 16 15 15 15 15 15 14 13 12 11 11 10 10 9 9 9 8 8 7 6 5 4 3 2 2 2 2 2 2 3 4 4 4 4 5 7 8 8 8 9 11 11 10 10 9 8 9
28 28 25 21 22 21 18 16 18 22 18 16 18 19 18 18 22 21 19 19 16 18 20 16 14 15 15 16 13 13 12 10 10 11 13 16 18 20 20 20 19 19 20 20 21 20 18 17 18 18 18 17 17 17 16 16 15 14 12 11 11 11 11 10 10 9 9 9 8 7 6 5 4 4 3 3 3 3 3 3 3 3 3 4 6 8 9 9 8 10 12 12 11 10 9 9 9
31 32 29 24 23 22 19 19 19 23 20 18 19 19 18 19 20 20 20 19 16 18 22 18 15 15 17 17 14 14 13 10 11 13 14 15 17 20 21 21 21 21 21 22 22 22 20 18 18 18 19 19 19 18 17 16 14 13 12 12 12 12 11 11 10 10 10 10 9 8 6 6 6 5 4 4 3 3 3 3 3 3 3 4 6 8 10 10 10 11 13 13 12 10 10 11 11
34 35 33 29 25 22 19 17 20 24 22 21 20 18 20 19 18 20 21 22 20 20 22 21 17 17 17 17 16 16 15 12 12 14 14 14 17 20 21 22 22 22 22 22 21 21 20 19 19 19 20 20 19 18 17 15 14 13 13 13 13 12 12 11 11 11 11 10 9 8 7 7 6 5 4 3 3 3 3 3 3 4 4 5 7 8 9 10 10 11 13 13 12 11 11 12 11
35 36 35 31 30 27 22 19 20 22 24 22 17 19 25 24 23 24 22 22 23 23 23 23 20 19 18 17 18 18 16 14 13 14 14 14 17 20 23 23 23 23 23 22 22 22 22 21 20 21 21 21 19 18 17 15 14 14 14 14 13 13 13 13 13 12 11 10 9 8 8 8 6 4 3 2 2 2 2 3 3 3 5 6 7 8 9 9 10 10 12 13 12 11 12 12 11
36 37 35 32 32 29 24 24 24 24 29 26 21 24 26 24 25 23 19 21 23 23 27 29 28 23 18 17 19 19 17 15 14 14 15 15 17 21 24 24 24 23 23 23 23 23 23 23 23 23 22 21 21 19 17 16 16 16 16 15 15 15 14 13 12 11 11 10 9 9 10 9 7 5 3 1 1 1 2 2 3 3 4 5 6 8 9 9 9 10 11 12 12 12 12 11 10
38 37 34 33 34 32 28 27 27 28 30 25 23 29 26 23 22 21 23 27 25 24 28 32 32 26 19 16 18 19 17 16 16 17 18 16 15 19 23 24 24 24 24 24 24 23 24 23 23 23 22 21 20 19 18 18 18 18 17 17 16 15 13 12 12 12 12 11 11 11 11 9 7 5 3 1 1 1 2 2 3 4 4 5 6 8 9 9 9 9 11 12 12 12 11 10 10
39 36 34 35 35 36 34 31 27 27 28 24 24 29 31 29 26 24 26 27 25 24 25 29 32 29 23 18 17 19 19 18 18 19 18 16 14 17 22 25 26 26 25 24 23 23 23 23 23 23 22 21 20 19 19 19 19 19 18 18 16 15 13 13 13 13 13 12 12 11 11 9 7 6 4 2 1 2 3 3 4 4 5 5 6 7 8 9 9 9 10 11 11 11 11 10 11
37 36 37 38 37 38 38 37 32 28 29 29 28 30 32 31 29 28 26 26 28 30 29 30 36 37 27 22 21 21 21 20 18 18 18 17 17 19 24 28 29 27 25 24 23 24 25 24 24 23 21 20 19 19 20 20 21 20 19 18 16 15 14 14 15 14 13 13 12 11 10 9 7 6 4 3 1 2 3 4 4 5 5 5 6 7 7 8 8 8 9 10 10 10 10 10 11
35 37 39 39 39 39 39 41 39 36 37 38 35 33 32 29 28 28 28 29 27 25 26 27 34 41 32 23 23 22 21 20 17 17 18 19 21 24 27 30 30 28 26 25 25 25 25 24 23 22 21 19 19 19 20 21 21 20 18 17 16 15 15 15 14 14 14 13 12 11 10 9 7 6 5 3 2 0 2 4 5 6 6 6 6 6 7 7 8 8 8 9 9 9 9 9 11
34 37 39 39 41 41 40 42 42 43 47 46 39 36 36 35 31 25 26 30 25 22 24 21 29 37 28 19 22 22 21 20 17 19 20 22 25 27 29 30 29 28 26 25 24 24 24 23 22 21 20 19 19 20 21 21 20 19 18 17 17 16 16 15 14 14 14 13 12 11 10 9 8 7 6 5 4 2 1 3 5 6 7 6 6 6 6 6 7 7 8 8 8 8 8 9 10
34 36 39 41 40 40 41 42 44 48 50 47 42 40 42 44 38 28 27 31 29 28 26 21 28 33 22 17 21 20 20 21 20 21 22 23 24 24 25 26 26 26 24 23 22 23 22 22 21 20 19 19 19 20 21 21 20 19 18 17 17 17 16 15 15 14 13 13 11 11 10 10 9 9 8 7 5 4 4 3 4 5 6 7 6 6 5 6 6 6 7 7 7 7 7 8 9
37 38 39 39 38 40 44 45 48 50 46 43 44 45 47 47 41 33 30 31 32 28 25 25 32 36 27 25 26 21 20 23 22 22 23 22 21 21 21 22 23 22 20 20 20 21 22 21 21 20 19 19 19 20 21 21 20 19 19 18 17 17 17 16 15 14 13 13 12 11 11 11 10 9 9 8 7 6 6 6 5 5 5 6 6 6 5 5 5 5 6 6 6 6 7 7 8
39 39 38 39 41 44 45 45 46 46 42 42 44 44 48 48 40 33 32 33 32 27 25 28 33 34 27 24 29 28 25 25 23 23 23 23 21 20 19 20 21 20 18 19 20 20 21 21 21 20 20 20 20 20 20 20 20 20 19 18 18 18 18 17 16 15 14 13 13 12 11 11 11 11 10 9 8 8 9 8 7 6 5 6 6 6 5 5 5 5 5 5 6 6 6 7 7
39 39 38 39 43 42 40 40 41 42 42 43 44 45 48 44 35 31 33 34 32 28 27 27 29 33 26 20 25 31 30 26 23 23 24 24 23 19 17 17 19 19 19 20 21 21 22 22 21 21 21 21 20 20 21 21 21 21 20 19 18 18 18 18 16 15 15 14 14 13 12 12 12 12 11 10 9 9 10 9 8 7 6 6 6 6 6 6 5 5 5 5 6 6 6 7 7
42 41 41 41 40 39 38 37 37 39 41 42 43 43 43 38 33 34 37 36 33 31 30 27 28 33 31 23 23 30 33 28 24 24 23 24 24 19 16 16 17 19 20 21 22 22 22 23 23 23 23 22 22 22 22 22 22 22 20 19 18 18 18 18 16 15 15 14 14 13 13 13 13 13 13 12 11 11 11 10 9 8 8 7 7 7 7 7 6 5 5 5 6 6 7 7 7
44 43 42 40 38 38 39 34 31 33 36 39 41 40 37 34 32 33 36 35 33 32 31 29 30 33 36 30 24 27 33 31 24 23 24 25 26 20 17 16 17 19 20 21 22 23 23 24 24 25 24 24 24 23 23 23 23 21 20 19 18 17 17 18 17 16 15 14 13 13 13 12 12 13 13 12 12 12 11 11 11 9 9 9 8 7 8 8 8 7 6 5 5 6 7 7 7
46 44 40 38 39 40 39 34 28 28 29 30 32 31 30 31 28 27 29 29 29 29 29 28 28 33 37 33 23 21 27 29 25 24 26 27 25 20 17 16 17 18 19 21 22 24 25 26 26 25 25 24 24 24 24 23 21 20 19 18 17 16 17 18 18 17 15 14 13 13 13 13 13 12 12 12 12 12 12 12 12 11 10 10 10 9 9 9 9 8 7 6 6 6 7 8 8
45 43 40 39 42 43 41 36 32 32 31 29 27 24 23 26 26 21 20 20 20 23 28 26 25 33 37 32 24 22 24 26 25 25 26 26 24 20 17 16 17 18 20 21 23 25 26 26 26 26 25 25 25 24 22 20 19 19 18 17 16 16 16 16 17 17 16 16 15 15 15 14 14 13 13 13 13 13 13 13 13 13 12 12 12 12 11 10 10 10 9 8 7 7 7 8 8
47 44 42 41 43 43 41 38 35 34 32 27 26 26 24 24 26 23 17 17 18 20 26 26 25 32 33 30 27 23 22 27 26 23 24 24 23 21 18 18 18 19 20 22 24 25 26 26 26 25 25 25 24 22 20 19 18 18 17 17 16 15 15 15 15 15 15 16 16 16 16 16 16 16 15 15 15 15 15 15 15 15 14 14 14 14 14 13 12 12 11 10 8 8 8 8 9
52 49 46 44 45 42 40 39 38 36 33 25 20 20 18 17 23 25 20 18 20 22 24 26 26 29 29 30 30 24 23 29 27 20 21 23 23 23 21 20 21 21 22 23 24 25 25 26 25 24 24 23 22 20 19 19 19 18 18 17 16 16 16 15 15 15 15 15 16 16 17 17 17 17 17 17 17 18 18 18 17 17 16 16 16 16 16 15 14 13 13 12 11 10 10 9 9
51 51 48 47 47 43 41 42 40 39 37 31 21 13 10 11 16 17 15 18 22 21 22 25 27 29 31 32 33 28 26 29 27 21 21 23 24 26 25 23 23 22 22 23 23 24 24 24 24 24 23 21 20 20 20 20 20 20 19 18 18 17 16 16 15 15 16 16 16 16 17 18 17 18 18 18 18 18 19 19 20 19 19 18 18 18 18 17 16 15 15 14 13 12 12 11 10
Wind_Direction
85 79 85 108 103 94 94 82 68 73 110 118 95 104 119 125 123 123 127 128 130 135 136 131 127 124 120 126 125 112 121 107 85 91 90 89 83 85 89 84 79 74 75 81 85 84 85 88 92 92 88 91 97 102 105 108 108 110 113 119 125 130 133 132 132 132 132 129 123 119 117 119 120 120 120 122 121 120 118 117 114 110 108 109 111 110 109 109 109 109 108 106 104 98 92 86 81
91 87 85 102 106 98 92 80 66 77 100 104 101 99 104 117 120 128 130 132 134 136 144 131 121 122 119 118 118 113 117 107 90 89 86 88 86 83 86 87 84 78 81 88 92 89 89 92 96 95 93 97 103 106 106 107 108 112 118 124 128 132 135 136 137 137 136 131 124 119 117 119 121 121 120 121 121 118 116 113 110 110 111 111 111 111 112 112 112 111 109 109 103 94 87 81 75
93 87 83 91 97 95 88 77 73 83 90 93 103 87 94 122 114 130 136 138 148 141 142 127 118 125 124 118 117 115 111 100 83 84 81 72 82 88 87 93 91 86 91 95 96 92 92 93 96 98 98 101 105 105 105 106 109 115 121 124 127 130 132 134 138 140 140 135 129 125 122 122 121 121 120 120 118 118 117 113 111 111 112 112 113 114 115 116 116 115 112 108 98 90 83 78 74
94 88 82 77 82 92 82 71 76 89 83 82 96 89 99 116 106 124 139 141 147 139 133 123 122 126 121 123 124 116 109 99 85 88 89 65 69 89 90 97 96 93 97 99 96 91 92 95 98 101 102 104 104 103 103 106 110 116 119 119 120 122 126 131 136 140 140 137 133 130 127 124 122 121 121 121 118 117 118 117 115 113 114 115 117 117 117 119 119 118 114 106 96 91 87 82 78
105 106 89 70 74 88 81 70 73 87 85 80 89 92 97 104 102 113 132 142 139 130 128 125 128 124 122 135 136 120 112 106 93 91 94 78 62 83 93 92 95 98 98 98 94 90 93 97 101 103 104 104 101 100 102 106 111 113 112 112 113 116 122 129 135 137 137 136 133 132 129 126 123 122 120 117 114 113 114 116 116 114 115 117 121 123 122 123 122 120 115 108 102 97 92 86 81
112 114 90 70 73 82 85 79 73 73 77 78 85 93 96 98 107 117 133 137 129 131 142 140 124 123 137 149 144 126 118 113 103 97 95 86 72 80 94 91 92 98 101 98 93 91 95 99 102 104 104 101 98 99 102 106 109 108 106 106 107 111 119 127 132 133 132 131 130 130 129 127 124 120 116 113 110 111 114 114 115 115 115 116 119 123 126 126 125 121 117 111 103 96 91 85 79
107 105 92 78 82 87 90 90 82 74 73 68 76 94 101 107 128 138 138 126 124 139 148 147 131 140 156 149 142 133 129 122 115 110 100 93 84 78 91 91 88 96 100 97 94 94 98 100 102 104 103 100 99 101 104 106 105 102 100 101 101 105 112 120 126 128 129 127 126 126 125 124 123 118 114 110 108 109 110 110 111 114 114 114 115 118 121 122 122 120 117 110 103 96 89 79 69
101 106 107 88 96 108 98 88 78 78 82 66 57 73 82 98 113 120 127 129 141 167 167 154 147 168 177 160 153 147 141 131 122 122 110 97 88 82 89 88 89 98 98 96 97 97 99 100 102 103 102 101 101 103 104 104 100 96 96 95 95 98 103 109 116 122 124 124 124 123 122 121 120 118 114 111 109 106 104 104 107 111 114 113 112 113 112 111 109 108 106 102 98 93 84 70 52
106 106 113 92 92 100 91 84 79 74 87 86 66 66 51 68 61 49 224 236 160 190 222 189 153 177 194 184 182 188 163 149 139 135 118 102 94 89 88 89 99 104 99 98 99 99 100 99 102 104 103 103 103 105 105 101 97 94 93 91 90 92 95 100 107 114 117 119 121 121 120 120 119 118 116 113 110 106 102 101 103 107 112 114 113 111 108 105 102 98 94 87 80 70 63 49 33
114 103 113 118 113 106 87 75 77 69 86 110 105 90 41 11 341 255 268 293 263 221 231 230 222 209 210 201 197 200 182 172 158 144 124 109 100 94 94 96 104 106 104 101 100 102 102 102 104 105 105 105 105 106 104 100 96 93 91 89 87 87 89 93 98 105 109 112 115 117 119 119 119 117 115 114 112 108 104 102 102 104 107 109 110 108 106 104 101 96 87 74 57 41 39 31 18
124 113 104 123 136 136 106 71 78 80 79 106 120 204 283 292 280 268 268 275 272 273 271 265 246 225 221 215 207 194 183 181 163 150 133 119 106 98 104 105 107 111 115 109 105 106 105 106 107 107 106 106 107 107 104 100 96 94 91 89 87 86 86 88 92 97 102 105 108 111 115 118 118 117 115 114 111 109 106 104 101 100 99 99 99 98 98 97 96 91 82 67 46 25 17 10 1
155 143 98 108 119 114 103 83 87 92 63 117 154 207 256 268 279 285 275 267 271 284 290 272 229 200 214 216 210 199 183 176 166 159 145 129 121 114 115 115 118 121 124 119 112 111 110 110 109 107 106 106 108 107 104 101 97 95 93 91 89 88 87 88 90 94 97 99 103 106 110 113 113 113 113 111 109 107 105 103 99 97 94 93 92 90 89 88 86 83 79 71 56 37 17 8 360
172 145 120 117 123 125 122 108 98 45 188 185 190 207 256 267 274 280 276 277 282 294 298 281 235 197 217 220 212 200 181 176 175 168 155 142 136 129 126 128 133 132 131 129 121 116 114 113 111 108 107 107 108 108 105 102 100 98 96 94 92 91 90 90 92 93 94 96 98 101 103 105 105 105 104 103 102 100 98 96 95 93 91 90 89 87 84 82 80 78 75 72 65 55 43 31 23
198 156 134 118 128 141 138 122 125 207 215 210 228 212 244 260 257 265 275 292 301 299 291 274 223 211 236 238 219 196 183 181 184 178 168 159 150 139 137 140 144 144 139 135 128 121 118 115 113 110 108 109 109 108 107 104 103 101 99 97 95 94 93 92 92 93 94 96 97 98 99 100 100 99 98 97 96 94 92 91 89 88 87 87 85 84 82 80 77 76 74 71 65 58 51 43 38
214 206 195 116 134 139 134 122 127 177 212 222 248 228 240 254 266 275 281 290 292 298 296 276 216 184 219 247 234 209 201 190 185 188 183 175 164 152 150 150 153 156 147 142 135 125 121 117 114 112 111 110 111 110 108 106 104 103 101 99 97 96 95 94 93 94 95 97 97 97 97 97 98 97 95 94 93 93 91 90 89 88 87 86 85 83 81 80 79 77 75 71 67 63 58 53 48
221 236 256 119 165 164 163 125 122 150 192 226 251 255 254 266 293 288 283 284 282 291 295 282 264 227 237 249 250 241 221 198 187 190 188 186 178 161 157 159 163 161 153 151 142 129 123 119 116 114 113 112 112 111 110 109 106 104 103 101 100 99 97 97 96 97 98 98 97 96 96 95 95 94 93 92 91 92 91 90 89 88 87 86 85 84 83 82 81 78 75 72 68 66 64 62 59
226 233 236 173 201 196 201 188 149 159 175 230 246 252 262 274 286 286 287 288 287 292 292 283 280 272 271 263 252 246 229 210 194 192 195 198 191 172 164 169 171 165 159 158 147 136 128 122 119 117 116 116 115 114 113 111 110 108 105 104 102 101 100 100 99 99 99 99 99 97 97 96 96 94 94 93 92 91 90 89 88 87 86 85 84 83 83 81 80 78 75 73 70 67 65 64 62
229 231 227 217 222 220 213 211 192 182 188 207 223 244 259 273 282 289 288 292 293 291 291 287 283 270 265 266 256 242 228 221 201 191 200 206 200 184 173 174 175 167 164 161 151 142 135 127 123 121 119 119 119 117 116 115 114 111 109 107 105 104 102 102 101 100 100 100 100 98 97 98 97 96 95 93 92 90 89 87 85 84 83 83 83 82 81 78 76 75 72 71 69 68 65 63 60
232 234 230 219 225 252 236 213 207 205 184 171 194 242 255 273 294 295 281 293 295 283 289 289 286 279 269 265 259 246 233 226 209 195 198 207 211 197 180 174 174 171 168 163 154 148 143 135 126 123 123 122 122 121 120 119 117 115 113 110 108 106 104 103 101 101 101 100 101 100 98 98 99 97 95 93 91 89 86 86 84 83 82 82 81 80 80 78 75 73 72 70 68 67 65 63 61
233 236 235 226 226 240 229 201 216 236 175 141 212 246 252 260 295 284 263 281 281 271 282 279 279 281 278 274 261 249 241 229 217 206 197 199 215 205 185 175 175 175 171 165 160 153 149 143 133 128 126 125 125 124 123 122 120 118 116 113 110 109 106 105 104 102 101 100 100 101 99 99 99 96 94 92 90 88 86 85 85 84 82 81 81 80 79 78 75 73 74 72 70 69 67 65 62
233 237 238 231 224 240 237 205 224 239 198 144 226 238 247 253 290 279 266 277 269 270 275 265 271 280 279 272 255 245 242 231 218 212 202 193 203 205 191 179 175 177 173 167 164 158 154 148 139 136 132 130 128 127 126 124 123 121 119 117 114 112 109 107 106 105 104 102 102 103 104 103 99 96 94 93 91 89 88 86 86 84 82 81 81 80 78 77 76 72 70 73 73 73 71 68 62
232 235 241 235 223 238 238 205 222 229 224 245 223 223 249 255 277 271 274 276 269 280 278 269 276 277 274 268 254 243 238 232 221 212 206 194 194 202 193 181 175 178 176 170 167 161 157 152 146 143 139 135 133 132 131 128 127 124 121 119 117 114 112 109 108 108 109 110 111 109 108 104 100 99 97 94 94 91 89 88 87 84 82 82 82 80 77 74 76 74 70 70 68 65 62 62 59
231 232 240 242 231 235 239 222 226 221 228 247 232 224 254 266 270 265 277 277 279 286 280 286 297 282 273 269 259 248 237 230 227 216 210 198 193 200 194 183 178 178 178 172 168 166 163 157 151 149 144 140 140 139 137 133 130 127 125 122 120 117 114 112 111 111 112 114 115 114 112 108 103 102 100 97 94 91 90 89 88 86 81 79 80 77 75 72 71 73 69 64 61 58 53 51 51
230 229 235 243 238 233 239 239 225 216 225 241 250 238 237 254 270 276 287 283 282 278 277 292 301 291 280 271 262 256 242 223 223 219 213 204 195 197 195 189 182 179 178 174 170 169 168 163 157 154 149 146 145 145 144 138 133 130 128 125 123 120 117 114 112 112 112 112 113 115 115 112 109 107 104 101 98 95 91 89 87 87 84 81 79 76 74 73 68 66 62 56 52 52 50 46 45
228 229 231 240 243 238 239 238 216 213 220 219 233 244 236 250 274 287 288 286 283 276 279 290 293 288 283 280 275 264 246 215 211 215 211 203 196 195 195 192 185 179 179 177 173 172 170 166 162 158 155 152 148 150 149 143 138 135 132 130 126 124 120 115 113 111 109 108 108 109 110 109 110 109 105 101 102 100 95 92 87 82 80 76 73 71 68 67 61 54 54 48 43 42 38 36 39
228 229 228 232 240 241 238 235 218 214 218 204 210 236 240 254 275 282 281 283 286 282 280 285 285 280 280 287 283 265 246 220 205 206 206 198 190 191 192 192 188 181 181 181 175 173 172 168 165 164 161 156 153 154 153 146 143 139 136 134 131 129 124 119 115 112 107 104 105 105 107 106 104 106 105 101 98 94 91 89 84 77 71 66 61 59 53 51 48 41 42 40 35 34 31 28 29
229 229 229 228 234 239 234 232 224 214 217 208 205 222 231 247 259 264 273 280 283 279 274 279 279 275 279 279 272 260 246 230 207 198 201 198 188 186 187 190 191 184 182 183 178 174 172 169 168 168 165 161 157 157 155 150 147 143 141 140 136 134 129 125 122 117 112 109 110 107 106 105 99 99 102 100 94 88 86 81 77 71 65 60 51 48 47 45 44 39 38 37 32 31 30 27 26
232 231 231 228 231 238 237 233 227 214 208 205 214 225 226 232 237 250 262 268 275 270 262 271 274 271 277 273 268 260 248 237 216 199 197 198 192 188 186 190 192 187 184 182 180 177 173 172 172 171 168 165 161 158 159 157 152 147 146 145 140 138 135 134 132 126 125 122 121 119 114 109 102 99 96 95 91 83 79 72 67 63 60 58 48 44 47 47 45 43 40 37 32 32 33 30 29
234 233 232 229 228 233 237 236 231 219 207 209 221 227 232 242 238 247 256 257 265 265 259 262 264 266 269 265 260 252 245 241 228 210 199 197 196 191 189 191 193 190 187 183 181 179 176 175 175 173 170 167 164 162 164 160 154 151 150 149 145 143 141 140 139 137 138 136 134 132 127 122 115 109 97 88 84 77 70 63 57 54 54 54 50 45 45 47 46 45 43 39 34 34 36 35 36
233 234 233 231 228 228 230 234 233 224 215 217 224 228 237 245 236 238 252 259 265 262 256 257 261 265 262 256 253 246 241 239 232 219 204 196 193 194 193 195 196 192 189 186 183 180 178 177 177 175 173 168 166 165 166 163 156 155 155 154 152 148 146 144 144 146 148 148 144 142 138 134 125 115 99 80 74 72 66 60 55 49 46 47 49 46 45 45 45 44 43 39 37 36 37 37 39
232 234 233 232 231 226 225 232 233 226 221 220 224 230 232 237 245 246 246 255 261 254 249 251 250 252 256 251 245 244 242 237 233 224 211 200 190 191 196 199 200 194 190 190 185 183 181 179 180 178 175 170 167 168 168 166 161 159 161 161 158 154 152 151 150 151 152 152 148 144 142 137 127 115 98 80 73 73 69 61 55 48 43 46 48 47 46 43 42 43 40 37 35 34 33 32 32
230 233 232 232 230 222 222 227 229 225 224 226 228 231 228 234 255 247 239 247 252 246 241 242 240 243 253 253 247 249 250 242 233 226 216 206 195 190 195 199 202 196 191 192 188 186 183 181 183 181 178 173 169 170 169 167 166 165 166 165 164 161 159 157 154 153 152 150 148 143 141 136 124 112 98 84 71 68 68 63 54 46 42 47 50 48 44 42 42 42 39 36 33 29 27 25 25
230 234 233 230 225 221 223 224 232 234 224 227 234 232 224 223 229 230 241 250 244 242 240 241 251 252 250 254 256 255 254 248 231 224 221 210 200 194 194 196 199 196 192 194 191 188 186 185 185 182 182 178 172 171 171 171 170 170 171 169 169 167 165 163 156 153 151 149 148 145 142 135 124 112 98 83 64 47 50 53 46 41 42 47 52 50 43 40 42 41 38 34 30 28 27 26 26
234 237 233 231 225 219 217 204 229 242 229 223 232 230 220 217 219 222 241 252 239 241 241 243 258 257 250 251 254 252 251 254 241 228 224 215 206 198 195 196 197 194 191 193 193 191 190 187 186 185 184 181 176 176 176 176 175 175 176 175 175 173 172 168 159 155 153 150 150 148 143 134 128 113 92 75 59 29 20 24 21 30 43 45 45 46 41 37 40 40 36 31 29 28 28 27 25
236 238 234 233 229 223 216 190 212 243 235 220 224 227 219 219 236 231 230 248 248 243 237 239 251 254 254 248 243 247 241 243 248 241 230 219 212 205 199 196 196 195 191 191 193 194 193 190 187 187 186 182 180 182 182 181 181 182 182 181 181 180 179 174 166 162 157 154 153 153 148 139 133 114 86 64 49 23 12 10 9 20 37 39 39 39 36 36 37 36 34 29 27 25 23 21 18
231 236 234 232 229 226 220 196 206 236 234 220 217 223 217 214 236 236 227 241 250 245 239 242 249 247 250 250 245 249 239 225 231 244 241 226 213 208 203 198 197 196 192 191 192 194 195 191 189 189 189 187 184 185 187 187 188 188 187 186 185 182 181 180 172 167 162 160 161 161 158 151 145 125 87 60 48 26 16 12 10 19 29 32 35 28 32 38 35 33 33 26 22 19 15 15 14
225 229 231 233 231 223 216 206 217 228 230 227 218 219 223 224 236 235 226 232 244 250 243 239 248 250 248 250 246 243 242 232 224 231 239 232 218 209 204 199 198 197 194 193 191 193 195 192 190 191 193 192 190 191 191 193 194 192 190 187 184 183 182 182 177 171 168 167 168 170 168 163 156 136 110 77 60 37 23 21 17 23 30 31 26 17 23 31 31 34 34 24 20 19 15 14 11
223 223 223 229 236 228 205 199 225 232 229 228 223 223 223 222 236 247 244 233 238 255 251 235 235 247 251 251 247 241 244 240 231 232 233 234 226 213 205 199 197 196 196 196 192 191 194 195 193 191 193 195 196 197 197 198 198 194 190 187 184 184 183 181 178 175 174 174 173 176 176 168 157 139 118 91 72 54 33 30 32 30 35 36 21 12 14 18 23 32 31 23 21 20 14 10 5
220 222 218 214 227 236 210 191 216 230 228 223 228 242 238 223 230 249 257 250 246 258 262 249 228 230 244 249 251 250 250 243 239 242 237 232 227 219 211 202 196 195 197 198 196 192 192 195 196 193 194 197 198 200 201 200 199 195 189 187 187 186 184 181 179 179 180 179 178 179 178 169 157 143 122 100 80 63 43 32 35 28 28 35 20 10 10 12 17 23 22 20 20 16 9 5 2
217 220 221 212 211 225 217 202 212 219 223 222 221 234 240 238 236 235 244 255 264 270 266 257 237 224 232 242 247 247 246 243 241 248 246 236 229 224 217 208 199 195 196 200 200 195 193 195 198 197 197 199 199 201 202 199 196 194 191 190 190 188 185 182 181 183 182 180 181 181 176 167 158 145 126 104 84 67 54 36 27 17 8 17 16 8 8 9 11 14 14 17 17 10 4 5 7
219 219 221 218 211 210 205 210 221 224 230 231 226 228 226 226 228 226 231 246 262 274 269 261 252 233 225 232 241 241 240 241 241 248 251 240 231 227 221 211 203 197 195 199 201 198 196 197 198 199 200 199 198 200 201 198 194 194 194 192 192 191 188 186 183 182 181 179 179 179 173 167 163 153 138 113 88 58 46 29 14 12 5 5 6 3 8 8 4 7 10 14 14 6 4 10 16
222 222 220 219 218 211 199 201 209 221 234 235 230 231 230 223 218 216 224 232 240 255 261 263 264 251 228 222 235 239 238 238 241 243 245 241 233 229 224 214 205 199 197 199 201 200 199 199 199 200 202 200 198 198 197 197 196 196 196 194 195 195 191 187 181 179 179 178 177 177 175 174 173 168 163 150 90 27 21 10 346 355 7 359 358 1 5 5 1 4 7 10 10 4 4 14 21
221 223 222 220 219 214 207 201 200 211 230 241 235 233 239 237 225 216 216 221 229 243 250 256 263 257 233 222 235 243 241 239 242 240 239 241 236 231 229 221 209 200 199 201 201 202 202 204 203 202 203 202 200 197 196 199 200 200 200 198 198 196 191 184 180 181 181 180 180 180 180 180 180 176 170 162 81 28 13 360 331 340 357 349 354 2 2 0 360 2 4 6 6 2 4 13 18
222 221 221 222 221 216 211 205 204 213 225 234 238 245 253 247 234 226 218 217 226 235 239 249 260 256 234 225 234 240 243 243 243 240 233 232 232 231 232 226 215 203 199 202 202 203 206 207 208 206 204 204 203 200 198 202 204 204 203 201 201 196 190 187 185 187 185 184 186 183 183 183 180 179 172 162 86 40 19 5 338 335 346 343 350 359 358 360 358 357 2 2 1 1 2 7 11
221 219 219 221 221 220 216 209 207 212 219 219 220 234 250 252 242 234 225 220 220 222 226 233 249 256 244 231 232 234 241 244 245 244 234 226 226 230 229 225 217 205 198 200 203 205 207 209 209 208 206 205 206 205 204 206 208 208 206 202 201 197 194 193 191 192 191 190 191 187 188 187 181 184 179 172 138 48 27 16 360 346 346 341 344 352 356 359 355 354 360 357 355 359 359 0 5
219 219 220 220 220 221 221 218 213 211 215 215 211 216 230 243 242 234 235 236 228 234 241 224 233 256 257 234 226 232 241 246 248 247 236 225 222 223 223 221 216 207 198 198 202 206 209 212 211 209 208 207 207 210 211 213 213 212 209 205 202 200 199 199 198 198 198 197 197 194 194 193 189 194 197 195 196 52 24 21 14 4 357 346 342 345 349 352 352 355 357 353 351 353 354 355 358
220 220 221 221 222 220 220 223 221 220 223 221 216 215 221 231 233 227 235 242 232 234 248 229 228 251 259 237 224 227 237 246 247 244 234 222 220 220 221 220 217 210 200 198 202 208 211 214 214 211 210 208 208 211 215 218 218 215 212 208 204 204 205 204 204 204 205 205 204 202 202 203 204 209 215 219 224 241 309 1 9 8 4 355 346 342 342 345 350 355 354 349 346 344 347 351 351
221 221 222 223 224 223 221 223 223 227 232 230 227 224 226 236 240 230 230 242 238 225 225 230 236 244 253 254 241 228 229 240 243 242 235 224 219 217 218 220 222 217 205 200 203 208 213 214 217 215 212 211 210 212 217 219 221 219 216 212 208 208 210 209 210 210 212 213 211 211 211 213 218 222 229 237 242 253 267 294 330 353 360 357 351 342 336 337 343 352 350 344 341 335 336 342 346
222 220 221 221 223 225 224 223 224 230 235 235 235 232 233 243 247 239 232 240 249 239 217 218 235 245 251 255 256 249 235 236 240 244 244 237 223 213 212 215 220 220 210 205 207 210 214 215 217 218 215 214 212 213 218 221 222 222 219 215 211 212 215 214 215 217 219 220 219 220 221 223 228 234 240 247 254 261 264 271 290 317 343 353 353 345 334 330 336 342 343 341 336 329 324 330 341
222 222 221 219 221 226 226 225 227 233 237 237 236 235 240 247 248 245 240 238 246 249 230 219 232 248 249 241 252 258 246 236 234 239 244 243 230 212 207 208 210 212 210 209 210 212 216 216 216 218 218 217 216 216 219 222 224 224 222 220 215 215 220 220 220 222 223 226 228 229 231 233 237 243 248 254 258 261 264 271 283 296 316 337 347 349 339 327 326 329 333 336 331 324 317 319 331
225 224 224 223 225 230 230 229 230 232 236 238 237 238 244 250 252 251 247 243 244 244 236 228 233 249 250 232 242 253 250 239 231 235 241 242 233 214 203 206 205 206 207 209 211 212 215 217 216 217 218 219 219 218 220 222 225 226 225 224 220 219 224 227 227 227 229 231 233 236 239 240 244 249 254 259 260 260 264 271 280 288 298 315 332 346 346 334 324 319 321 326 324 319 313 311 320
228 224 225 226 228 232 233 233 234 235 236 239 241 244 249 253 256 255 251 249 248 242 237 229 228 245 254 244 239 248 251 245 234 233 237 240 238 221 204 207 207 206 207 209 212 212 214 217 218 218 218 217 218 218 219 221 224 227 227 226 225 223 226 232 234 235 235 236 237 239 242 243 245 250 255 260 260 259 262 268 275 282 288 298 315 334 345 342 332 317 309 314 316 313 307 305 309
228 225 225 229 230 231 231 231 233 235 237 240 243 249 254 255 253 253 252 251 250 248 244 235 228 240 254 252 242 244 249 249 241 234 231 236 239 225 207 209 212 211 210 211 213 214 215 217 219 220 220 219 218 218 219 221 224 226 228 229 229 227 228 232 237 240 240 240 241 243 245 246 246 248 252 257 259 259 260 266 272 276 281 290 303 318 331 338 337 325 307 298 303 304 300 297 299
230 229 227 227 229 229 227 224 225 229 233 238 243 247 254 259 255 250 252 251 248 248 247 241 230 234 250 255 244 234 240 244 242 237 235 238 239 227 212 213 217 216 214 213 214 215 216 218 219 220 221 221 221 221 222 224 226 229 232 233 233 232 231 232 237 243 247 248 248 249 249 250 249 249 250 252 254 256 259 264 270 273 276 283 293 304 314 323 330 329 316 296 285 290 290 288 289
229 233 231 227 228 231 229 225 225 228 230 232 236 234 237 254 262 256 249 246 241 238 242 241 225 226 243 253 243 230 233 236 233 232 238 244 245 235 219 215 219 220 218 215 215 217 217 219 220 219 220 221 222 224 225 227 230 233 236 239 239 238 236 236 239 243 248 252 254 255 254 254 254 253 253 252 252 253 255 259 265 270 274 277 283 291 299 306 315 322 321 305 283 275 279 280 280
223 226 229 229 229 232 234 233 230 231 231 230 235 236 229 240 256 257 249 240 228 221 232 235 223 224 237 244 239 232 232 236 232 227 236 245 247 239 221 214 219 221 221 219 217 218 219 219 220 220 220 223 224 226 228 230 234 238 241 243 244 244 244 244 244 244 247 250 254 257 259 260 260 260 259 259 257 256 256 258 261 267 271 272 275 281 287 294 302 309 315 312 293 274 269 271 272
220 220 222 226 228 228 231 233 231 230 229 226 230 242 248 249 254 260 264 254 231 215 225 230 224 227 234 235 236 231 228 238 238 228 233 242 244 238 223 213 216 218 222 223 220 219 220 221 221 221 222 224 226 227 229 231 234 237 241 244 245 247 248 248 247 247 248 249 252 255 258 259 261 262 262 262 261 260 260 261 262 265 268 270 271 274 279 285 291 297 304 308 301 281 267 265 268
223 223 222 225 227 225 225 228 230 229 228 224 215 220 251 247 236 243 253 254 238 219 221 228 222 223 228 231 238 235 228 236 238 226 229 237 236 232 224 214 215 219 223 226 224 222 222 223 224 224 223 224 227 229 231 232 233 235 237 239 241 242 245 247 248 250 251 253 254 255 256 258 260 261 262 262 262 262 263 264 265 266 268 270 271 271 273 277 282 286 292 299 301 290 274 266 265